Centralia, IL

7:02 AM CST on February 11, 2016 (GMT -0600)
Centralia Municipal

Weather History for KENL - July, 2014

Change the Weather History Date:

Monday, July 14, 2014

  Actual Average (KSLO) Record (KSLO)
Temperature  
Mean Temperature 81 °F -  
Max Temperature 97 °F 90 °F 102 °F (1966)
Min Temperature 65 °F 67 °F 51 °F (1967)
Cooling Degree Days 16    
Growing Degree Days 31 (Base 50)    
Moisture  
Dew Point 68 °F    
Average Humidity 80    
Maximum Humidity 94    
Minimum Humidity 46    
Precipitation  
Precipitation 0.12 in - - ()
Sea Level Pressure  
Sea Level Pressure 29.92 in    
Wind  
Wind Speed 4 mph (West)    
Max Wind Speed 17 mph    
Max Gust Speed 37 mph    
Visibility 8 miles    
Events Rain    
Averages and records for this station are not official NWS values.
T = Trace of Precipitation, MM = Missing Value Source: NWS Daily Summary

Daily Weather History Graph

Daily Weather History Graph

Search for Another Location

Airport or City:

Trip Planner

Search our weather history database for the weather conditions in past years. The results will help you decide how hot, cold, wet, or windy it might be!

Date:

Astronomy

Jul. 14, 2014 Rise Set
Actual Time 5:43 AM CDT 8:20 PM CDT
Civil Twilight 5:12 AM CDT 8:51 PM CDT
Nautical Twilight 4:34 AM CDT 9:29 PM CDT
Astronomical Twilight 3:50 AM CDT 10:12 PM CDT
Moon 9:53 PM CDT (7/14) 8:23 AM CDT (7/14)
Length of Visible Light 15h 38m
Length of Day
14h 36m
Waning Gibbous, 93% of the Moon is Illuminated
Jul 14
Waning Gibbous
Jul 18
Last Quarter
Jul 26
New
Aug 3
First Quarter
Aug 10
Full

Hourly Weather History & Observations

Time (CDT) Temp. Heat Index Dew Point Humidity Pressure Visibility Wind Dir Wind Speed Gust Speed Precip Events Conditions
12:15 AM 72.0 °F - 69.8 °F 93% 29.93 in 10.0 mi Calm Calm - N/A   Scattered Clouds
12:35 AM 72.5 °F - 70.0 °F 92% 29.94 in 10.0 mi West 3.5 mph - N/A Rain Rain
12:55 AM 72.0 °F - 69.8 °F 93% 29.97 in 7.0 mi SW 9.2 mph - N/A Rain Rain
1:15 AM 71.6 °F - 69.6 °F 93% 29.96 in 5.0 mi SSW 5.8 mph - 0.01 in Rain Rain
1:35 AM 71.6 °F - 69.4 °F 93% 29.95 in 5.0 mi SSW 4.6 mph - 0.01 in Rain Rain
1:55 AM 71.6 °F - 69.3 °F 92% 29.94 in 7.0 mi South 3.5 mph - 0.01 in Rain Light Rain
2:15 AM 71.6 °F - 69.4 °F 93% 29.92 in 5.0 mi South 4.6 mph - N/A Rain Rain
2:35 AM 71.6 °F - 69.4 °F 93% 29.92 in 7.0 mi West 3.5 mph - 0.01 in Rain Light Rain
2:55 AM 71.1 °F - 69.1 °F 93% 29.92 in 10.0 mi SW 6.9 mph - 0.01 in Rain Light Rain
3:15 AM 70.9 °F - 68.9 °F 93% 29.92 in 10.0 mi SW 8.1 mph - N/A   Overcast
3:35 AM 70.9 °F - 68.9 °F 93% 29.92 in 10.0 mi WSW 6.9 mph - N/A Rain Light Rain
3:55 AM 71.6 °F - 68.0 °F 88% 29.92 in 10.0 mi West 4.6 mph - N/A   Overcast
4:15 AM 70.2 °F - 68.2 °F 93% 29.92 in 10.0 mi Calm Calm - N/A   Mostly Cloudy
4:35 AM 70.3 °F - 68.4 °F 93% 29.92 in 10.0 mi Calm Calm - N/A   Mostly Cloudy
4:55 AM 70.2 °F - 68.2 °F 93% 29.92 in 10.0 mi Calm Calm - N/A   Mostly Cloudy
5:15 AM 70.3 °F - 68.4 °F 93% 29.92 in 10.0 mi Calm Calm - N/A   Mostly Cloudy
5:35 AM 70.7 °F - 68.5 °F 93% 29.92 in 10.0 mi Calm Calm - N/A   Overcast
5:55 AM 70.7 °F - 68.5 °F 93% 29.92 in 10.0 mi Calm Calm - N/A   Overcast
6:15 AM 70.7 °F - 68.9 °F 94% 29.92 in 10.0 mi Calm Calm - N/A   Overcast
6:35 AM 70.9 °F - 68.9 °F 93% 29.92 in 7.0 mi Calm Calm - N/A   Overcast
6:55 AM 71.6 °F - 69.4 °F 93% 29.93 in 4.0 mi West 3.5 mph - N/A   Overcast
7:15 AM 71.6 °F - 69.6 °F 93% 29.93 in 3.0 mi WSW 3.5 mph - N/A   Overcast
7:35 AM 72.9 °F - 70.7 °F 93% 29.94 in 4.0 mi Calm Calm - N/A   Overcast
7:55 AM 72.9 °F - 70.3 °F 92% 29.94 in 2.5 mi WSW 3.5 mph - N/A   Overcast
8:15 AM 72.5 °F - 69.8 °F 91% 29.95 in 2.5 mi WSW 3.5 mph - N/A   Overcast
8:35 AM 73.4 °F - 70.3 °F 90% 29.96 in 2.5 mi West 4.6 mph - N/A   Overcast
8:55 AM 73.6 °F - 70.7 °F 91% 29.96 in 2.5 mi West 4.6 mph - N/A   Overcast
9:15 AM 74.3 °F - 70.9 °F 89% 29.96 in 2.5 mi Calm Calm - N/A   Overcast
9:35 AM 75.6 °F - 71.8 °F 88% 29.95 in 2.5 mi West 3.5 mph - N/A   Overcast
9:55 AM 76.5 °F - 71.4 °F 84% 29.95 in 3.0 mi West 3.5 mph - N/A   Haze
10:15 AM 77.9 °F - 72.0 °F 82% 29.94 in 3.0 mi Calm Calm - N/A   Haze
10:35 AM 79.7 °F - 71.6 °F 76% 29.95 in 5.0 mi SW 4.6 mph - N/A   Haze
10:55 AM 83.1 °F 89.2 °F 73.4 °F 72% 29.95 in 7.0 mi West 3.5 mph - N/A   Overcast
11:15 AM 97.3 °F 111.9 °F 76.6 °F 51% 29.95 in 7.0 mi Calm Calm - N/A   Overcast
11:35 AM 93.2 °F 105.0 °F 75.2 °F 56% 29.94 in 10.0 mi Calm Calm - N/A   Scattered Clouds
11:55 AM 89.4 °F 97.8 °F 73.4 °F 59% 29.93 in 10.0 mi Calm Calm - N/A   Scattered Clouds
12:15 PM 90.3 °F 96.2 °F 70.5 °F 52% 29.92 in 10.0 mi West 4.6 mph - N/A   Scattered Clouds
12:35 PM 90.5 °F 95.5 °F 69.6 °F 50% 29.90 in 10.0 mi Calm Calm - N/A   Scattered Clouds
12:55 PM 88.7 °F 93.9 °F 70.3 °F 54% 29.90 in 10.0 mi Calm Calm - N/A   Clear
1:15 PM 89.2 °F 94.9 °F 70.5 °F 54% 29.89 in 10.0 mi SW 8.1 mph - N/A   Clear
1:35 PM 87.8 °F 91.8 °F 68.7 °F 53% 29.88 in 10.0 mi SW 8.1 mph - N/A   Scattered Clouds
1:55 PM 89.6 °F 92.6 °F 66.9 °F 47% 29.86 in 10.0 mi SW 6.9 mph - N/A   Scattered Clouds
2:15 PM 90.1 °F 94.0 °F 68.2 °F 48% 29.85 in 10.0 mi SW 4.6 mph - N/A   Clear
2:55 PM 90.5 °F 93.8 °F 67.3 °F 46% 29.85 in 10.0 mi West 6.9 mph - N/A   Clear
3:35 PM 80.8 °F 82.0 °F 62.8 °F 54% 29.91 in 10.0 mi NW 17.3 mph 28.8 mph N/A   Mostly Cloudy
3:55 PM 66.6 °F - 63.7 °F 90% 29.92 in 2.5 mi NW 12.7 mph 36.8 mph 0.10 in Rain Rain
4:15 PM 70.7 °F - 66.6 °F 87% 29.89 in 10.0 mi WNW 9.2 mph - N/A Rain Light Rain
4:35 PM 71.2 °F - 65.3 °F 81% 29.88 in 10.0 mi NW 8.1 mph - N/A Rain Light Rain
4:55 PM 71.8 °F - 65.8 °F 81% 29.89 in 10.0 mi West 8.1 mph - N/A Rain Light Rain
5:15 PM 73.0 °F - 66.4 °F 80% 29.90 in 10.0 mi WSW 5.8 mph - N/A Rain Light Rain
5:35 PM 79.5 °F - 66.7 °F 65% 29.89 in 10.0 mi West 5.8 mph - N/A   Clear
5:55 PM 76.3 °F - 67.3 °F 74% 29.88 in 10.0 mi WNW 4.6 mph - N/A   Clear
6:15 PM 75.2 °F - 67.6 °F 77% 29.89 in 10.0 mi NW 5.8 mph - N/A   Scattered Clouds
6:35 PM 77.5 °F - 68.5 °F 74% 29.88 in 10.0 mi WNW 3.5 mph - N/A   Clear
6:55 PM 75.4 °F - 67.5 °F 76% 29.89 in 10.0 mi Calm Calm - N/A   Scattered Clouds
7:15 PM 77.0 °F - 68.0 °F 74% 29.90 in 10.0 mi NW 4.6 mph - N/A   Scattered Clouds
7:35 PM 77.5 °F - 67.3 °F 71% 29.90 in 10.0 mi WNW 4.6 mph - N/A   Scattered Clouds
7:55 PM 73.9 °F - 67.3 °F 80% 29.90 in 10.0 mi West 4.6 mph - N/A   Scattered Clouds
8:15 PM 72.5 °F - 67.1 °F 83% 29.91 in 10.0 mi West 3.5 mph - N/A   Clear
8:55 PM 72.1 °F - 67.1 °F 84% 29.91 in 10.0 mi NW 6.9 mph - N/A   Scattered Clouds
9:15 PM 71.6 °F - 64.4 °F 78% 29.92 in 10.0 mi NW 6.9 mph - N/A   Clear
9:35 PM 69.4 °F - 63.9 °F 82% 29.93 in 10.0 mi NNW 4.6 mph - N/A   Clear
9:55 PM 68.0 °F - 64.4 °F 88% 29.93 in 10.0 mi WNW 4.6 mph - N/A   Clear
10:15 PM 66.6 °F - 63.0 °F 88% 29.93 in 10.0 mi Calm Calm - N/A   Clear
10:35 PM 65.5 °F - 62.6 °F 90% 29.95 in 10.0 mi West 3.5 mph - N/A   Clear
10:55 PM 65.7 °F - 61.9 °F 88% 29.95 in 10.0 mi West 4.6 mph - N/A   Clear
11:15 PM 65.1 °F - 61.3 °F 88% 29.96 in 10.0 mi WNW 4.6 mph - N/A   Clear
11:35 PM 66.0 °F - 60.3 °F 82% 29.96 in 10.0 mi NW 8.1 mph - N/A   Clear
11:55 PM 66.2 °F - 59.0 °F 78% 29.97 in 10.0 mi NW 8.1 mph - N/A   Clear